BAW1A EGKK-ELLX

Flight info

Callsign BAW1A
Flight time 0h 46m
Altitude 35000
Route ODVIK Y311 DVR UL9 KONAN UL607 REMBA
Aircraft A320/M-SDE3FGHIRWY/LB1

Departure

Time 2026-05-06 18:24
Airport London Gatwick Airport (EGKK)

Arrival

Time 2026-05-06 19:10
Airport Luxembourg-Findel International Airport (ELLX)
Time Latitude Longitude Altitude Speed Heading
2026-05-06 17:48 51.15393 -0.18020 209 ft 0 kts 167°
2026-05-06 18:06 51.15400 -0.18022 177 ft 2 kts 167°
2026-05-06 18:06 51.15417 -0.18028 214 ft 2 kts 167°
2026-05-06 18:07 51.15433 -0.18034 211 ft 2 kts 167°
2026-05-06 18:07 51.15450 -0.18040 208 ft 2 kts 203°
2026-05-06 18:07 51.15465 -0.18029 212 ft 2 kts 239°
2026-05-06 18:07 51.15471 -0.18011 217 ft 0 kts 254°
2026-05-06 18:12 51.15466 -0.18039 210 ft 7 kts 255°
2026-05-06 18:12 51.15447 -0.18146 205 ft 16 kts 243°
2026-05-06 18:12 51.15394 -0.18156 212 ft 6 kts 152°
2026-05-06 18:13 51.15333 -0.18130 209 ft 11 kts 168°
2026-05-06 18:13 51.15280 -0.18111 209 ft 0 kts 167°
2026-05-06 18:13 51.15278 -0.18110 208 ft 1 kts 167°
2026-05-06 18:13 51.15276 -0.18109 208 ft 0 kts 167°
2026-05-06 18:14 51.15241 -0.18097 205 ft 11 kts 168°
2026-05-06 18:15 51.15197 -0.18213 209 ft 19 kts 259°
2026-05-06 18:15 51.15164 -0.18497 209 ft 30 kts 258°
2026-05-06 18:15 51.15116 -0.18838 210 ft 33 kts 257°
2026-05-06 18:15 51.15066 -0.19209 207 ft 35 kts 258°
2026-05-06 18:16 51.15008 -0.19627 205 ft 42 kts 257°
2026-05-06 18:16 51.14946 -0.20095 205 ft 44 kts 259°
2026-05-06 18:16 51.14876 -0.20576 208 ft 45 kts 257°
2026-05-06 18:16 51.14813 -0.21038 215 ft 23 kts 258°
2026-05-06 18:17 51.14768 -0.21263 209 ft 18 kts 277°
2026-05-06 18:17 51.14756 -0.21372 209 ft 0 kts 257°
2026-05-06 18:17 51.14749 -0.21389 210 ft 6 kts 232°
2026-05-06 18:17 51.14730 -0.21403 212 ft 0 kts 190°
2026-05-06 18:20 51.14682 -0.21392 205 ft 13 kts 154°
2026-05-06 18:20 51.14620 -0.21330 205 ft 0 kts 169°
2026-05-06 18:22 51.14598 -0.21323 205 ft 9 kts 167°
2026-05-06 18:22 51.14519 -0.21234 215 ft 17 kts 122°
2026-05-06 18:22 51.14518 -0.21197 213 ft 0 kts 72°
2026-05-06 18:23 51.14523 -0.21170 208 ft 19 kts 75°
2026-05-06 18:23 51.14609 -0.20551 213 ft 92 kts 77°
2026-05-06 18:23 51.14787 -0.19278 230 ft 141 kts 75°
2026-05-06 18:24 51.14997 -0.17797 844 ft 137 kts 75°
2026-05-06 18:24 51.15213 -0.16289 1430 ft 142 kts 74°
2026-05-06 18:24 51.15456 -0.14658 1721 ft 165 kts 73°
2026-05-06 18:24 51.15743 -0.12749 2036 ft 190 kts 74°
2026-05-06 18:25 51.16070 -0.10541 2353 ft 219 kts 74°
2026-05-06 18:25 51.16427 -0.08042 2846 ft 243 kts 75°
2026-05-06 18:25 51.16775 -0.05325 3656 ft 254 kts 79°
2026-05-06 18:25 51.16932 -0.02484 4599 ft 263 kts 90°
2026-05-06 18:26 51.16804 0.00469 5475 ft 271 kts 92°
2026-05-06 18:26 51.16721 0.03494 5879 ft 274 kts 91°
2026-05-06 18:26 51.16668 0.06527 5999 ft 274 kts 91°
2026-05-06 18:26 51.16622 0.09554 6011 ft 273 kts 91°
2026-05-06 18:27 51.16578 0.12583 6013 ft 273 kts 90°
2026-05-06 18:27 51.16532 0.15588 6495 ft 275 kts 91°
2026-05-06 18:27 51.16516 0.18649 7451 ft 278 kts 89°
2026-05-06 18:27 51.16527 0.21766 8324 ft 284 kts 88°
2026-05-06 18:28 51.16545 0.24937 9205 ft 289 kts 88°
2026-05-06 18:28 51.16563 0.28164 10065 ft 294 kts 88°
2026-05-06 18:28 51.16579 0.31445 10844 ft 298 kts 88°
2026-05-06 18:28 51.16593 0.34775 11636 ft 303 kts 88°
2026-05-06 18:29 51.16600 0.38151 12436 ft 307 kts 89°
2026-05-06 18:29 51.16599 0.41570 13229 ft 311 kts 89°
2026-05-06 18:29 51.16596 0.45042 13978 ft 315 kts 89°
2026-05-06 18:29 51.16594 0.48548 14677 ft 319 kts 89°
2026-05-06 18:30 51.16593 0.52174 14969 ft 338 kts 89°
2026-05-06 18:30 51.16593 0.56044 15121 ft 360 kts 89°
2026-05-06 18:30 51.16592 0.60090 15591 ft 369 kts 89°
2026-05-06 18:30 51.16589 0.64146 16205 ft 374 kts 89°
2026-05-06 18:31 51.16581 0.68307 16840 ft 378 kts 90°
2026-05-06 18:31 51.16573 0.72511 17498 ft 381 kts 90°
2026-05-06 18:31 51.16565 0.76755 18158 ft 385 kts 90°
2026-05-06 18:31 51.16554 0.81047 18745 ft 389 kts 90°
2026-05-06 18:32 51.16539 0.85369 19361 ft 392 kts 90°
2026-05-06 18:32 51.16523 0.89739 19981 ft 396 kts 90°
2026-05-06 18:32 51.16505 0.94136 20602 ft 399 kts 90°
2026-05-06 18:32 51.16487 0.98577 21192 ft 402 kts 90°
2026-05-06 18:33 51.16466 1.03053 21781 ft 406 kts 90°
2026-05-06 18:33 51.16446 1.07567 22353 ft 409 kts 90°
2026-05-06 18:33 51.16271 1.12099 22899 ft 412 kts 99°
2026-05-06 18:33 51.15764 1.16615 23453 ft 416 kts 101°
2026-05-06 18:34 51.15244 1.21167 23926 ft 419 kts 101°
2026-05-06 18:34 51.14715 1.25743 24386 ft 421 kts 101°
2026-05-06 18:34 51.14182 1.30349 24840 ft 424 kts 101°
2026-05-06 18:34 51.13644 1.34973 25278 ft 427 kts 101°
2026-05-06 18:35 51.13099 1.39629 25720 ft 429 kts 101°
2026-05-06 18:35 51.12545 1.44325 26137 ft 432 kts 101°
2026-05-06 18:35 51.11991 1.49031 26540 ft 434 kts 101°
2026-05-06 18:35 51.11434 1.53771 26954 ft 437 kts 101°
2026-05-06 18:36 51.10874 1.58536 27363 ft 439 kts 101°
2026-05-06 18:36 51.10498 1.61704 27630 ft 441 kts 101°
2026-05-06 18:36 51.09222 1.72390 28530 ft 446 kts 101°
2026-05-06 18:37 51.08640 1.77254 28918 ft 449 kts 101°
2026-05-06 18:37 51.08050 1.82141 29305 ft 451 kts 101°
2026-05-06 18:37 51.07454 1.87050 29678 ft 454 kts 101°
2026-05-06 18:37 51.06851 1.91988 30058 ft 456 kts 102°
2026-05-06 18:38 51.06243 1.96952 30392 ft 458 kts 102°
2026-05-06 18:38 51.05632 2.01930 30710 ft 460 kts 102°
2026-05-06 18:38 51.05019 2.06932 31016 ft 462 kts 102°
2026-05-06 18:38 51.04405 2.11942 31400 ft 462 kts 101°
2026-05-06 18:39 51.03787 2.16948 31835 ft 461 kts 101°
2026-05-06 18:39 51.03168 2.21938 32268 ft 460 kts 101°
2026-05-06 18:39 51.02557 2.26844 32724 ft 458 kts 101°
2026-05-06 18:40 51.01303 2.36763 33582 ft 457 kts 101°
2026-05-06 18:40 51.00676 2.41710 34024 ft 456 kts 101°
2026-05-06 18:40 51.00051 2.46642 34367 ft 457 kts 101°
2026-05-06 18:40 50.99422 2.51586 34692 ft 457 kts 101°
2026-05-06 18:41 50.98792 2.56534 34911 ft 458 kts 102°
2026-05-06 18:41 50.97523 2.66409 34948 ft 456 kts 102°
2026-05-06 18:42 50.96253 2.76237 34962 ft 455 kts 102°
2026-05-06 18:42 50.94980 2.86070 34954 ft 454 kts 102°
2026-05-06 18:43 50.93699 2.95886 34955 ft 455 kts 102°
2026-05-06 18:43 50.92410 3.05680 34952 ft 454 kts 102°
2026-05-06 18:44 50.91105 3.15478 34946 ft 454 kts 102°
2026-05-06 18:44 50.89794 3.25277 34931 ft 455 kts 102°
2026-05-06 18:45 50.88486 3.35017 34943 ft 454 kts 103°
2026-05-06 18:45 50.87158 3.44796 34937 ft 454 kts 103°
2026-05-06 18:46 50.85829 3.54561 34947 ft 454 kts 103°
2026-05-06 18:46 50.84496 3.64313 34937 ft 454 kts 103°
2026-05-06 18:47 50.83149 3.74061 34940 ft 453 kts 103°
2026-05-06 18:47 50.81786 3.83798 34936 ft 453 kts 103°
2026-05-06 18:48 50.80421 3.93528 34938 ft 453 kts 103°
2026-05-06 18:48 50.79058 4.03251 34716 ft 453 kts 103°
2026-05-06 18:48 50.78373 4.08101 34482 ft 452 kts 103°
2026-05-06 18:49 50.77684 4.12948 34248 ft 451 kts 103°
2026-05-06 18:49 50.76994 4.17786 34015 ft 451 kts 103°
2026-05-06 18:49 50.76303 4.22620 33754 ft 451 kts 103°
2026-05-06 18:49 50.75611 4.27445 33037 ft 453 kts 103°
2026-05-06 18:50 50.74702 4.32217 32334 ft 450 kts 115°
2026-05-06 18:50 50.73138 4.36382 32210 ft 434 kts 127°
2026-05-06 18:50 50.71374 4.40159 32105 ft 421 kts 127°
2026-05-06 18:50 50.69653 4.43818 32000 ft 412 kts 127°
2026-05-06 18:51 50.67928 4.47449 31904 ft 415 kts 128°
2026-05-06 18:51 50.64441 4.54708 31708 ft 415 kts 128°
2026-05-06 18:52 50.60948 4.61937 31507 ft 414 kts 128°
2026-05-06 18:52 50.59205 4.65542 31399 ft 413 kts 129°
2026-05-06 18:52 50.57464 4.69144 30947 ft 413 kts 128°
2026-05-06 18:52 50.55732 4.72731 30414 ft 411 kts 128°
2026-05-06 18:53 50.54008 4.76307 29861 ft 410 kts 128°
2026-05-06 18:53 50.52309 4.79818 29290 ft 408 kts 128°
2026-05-06 18:53 50.50566 4.83376 28726 ft 415 kts 128°
2026-05-06 18:53 50.48800 4.86985 28164 ft 417 kts 128°
2026-05-06 18:54 50.47042 4.90594 27622 ft 415 kts 128°
2026-05-06 18:54 50.45293 4.94189 27087 ft 413 kts 128°
2026-05-06 18:54 50.43537 4.97806 26543 ft 410 kts 128°
2026-05-06 18:54 50.41813 5.01355 26044 ft 408 kts 128°
2026-05-06 18:55 50.40116 5.04834 25548 ft 406 kts 128°
2026-05-06 18:55 50.38400 5.08342 25042 ft 403 kts 128°
2026-05-06 18:55 50.36700 5.11814 24569 ft 401 kts 128°
2026-05-06 18:55 50.35007 5.15272 24086 ft 399 kts 128°
2026-05-06 18:56 50.33323 5.18710 23622 ft 397 kts 128°
2026-05-06 18:56 50.31642 5.22132 23104 ft 396 kts 128°
2026-05-06 18:56 50.29967 5.25529 22642 ft 393 kts 128°
2026-05-06 18:56 50.28301 5.28899 22178 ft 390 kts 128°
2026-05-06 18:57 50.26646 5.32236 21707 ft 387 kts 128°
2026-05-06 18:57 50.25004 5.35543 21239 ft 384 kts 128°
2026-05-06 18:57 50.23367 5.38838 20741 ft 382 kts 128°
2026-05-06 18:57 50.21745 5.42107 20258 ft 380 kts 128°
2026-05-06 18:58 50.20133 5.45361 19748 ft 378 kts 128°
2026-05-06 18:58 50.18527 5.48595 19246 ft 376 kts 128°
2026-05-06 18:58 50.16943 5.51778 18725 ft 375 kts 129°
2026-05-06 18:58 50.15327 5.55025 18202 ft 374 kts 128°
2026-05-06 18:59 50.13757 5.58180 17641 ft 372 kts 128°
2026-05-06 18:59 50.12154 5.61396 17119 ft 369 kts 128°
2026-05-06 18:59 50.10606 5.64500 16610 ft 366 kts 128°
2026-05-06 18:59 50.09045 5.67625 16089 ft 364 kts 128°
2026-05-06 19:00 50.07492 5.70722 15573 ft 362 kts 128°
2026-05-06 19:00 50.05948 5.73795 15067 ft 360 kts 127°
2026-05-06 19:00 50.04412 5.76854 14560 ft 358 kts 127°
2026-05-06 19:00 50.03375 5.78912 14211 ft 357 kts 127°
2026-05-06 19:01 50.01349 5.82928 13517 ft 356 kts 127°
2026-05-06 19:01 49.99827 5.85940 12969 ft 353 kts 127°
2026-05-06 19:01 49.98316 5.88926 12465 ft 350 kts 128°
2026-05-06 19:01 49.96820 5.91889 11963 ft 347 kts 128°
2026-05-06 19:02 49.95338 5.94827 11465 ft 345 kts 128°
2026-05-06 19:02 49.93863 5.97747 10971 ft 343 kts 128°
2026-05-06 19:02 49.92395 6.00644 10541 ft 339 kts 128°
2026-05-06 19:02 49.90948 6.03492 10305 ft 333 kts 128°
2026-05-06 19:03 49.89463 6.06407 10222 ft 352 kts 128°
2026-05-06 19:03 49.87938 6.09402 10079 ft 356 kts 128°
2026-05-06 19:03 49.86424 6.12434 9770 ft 356 kts 124°
2026-05-06 19:03 49.85302 6.15844 9116 ft 354 kts 112°
2026-05-06 19:04 49.84336 6.19348 8480 ft 351 kts 112°
2026-05-06 19:04 49.83365 6.22809 7790 ft 352 kts 113°
2026-05-06 19:04 49.82393 6.26230 7387 ft 343 kts 113°
2026-05-06 19:04 49.81432 6.29583 6878 ft 338 kts 113°
2026-05-06 19:05 49.80482 6.32899 6399 ft 334 kts 113°
2026-05-06 19:05 49.79559 6.36115 6257 ft 320 kts 114°
2026-05-06 19:05 49.78346 6.38856 6127 ft 308 kts 135°
2026-05-06 19:05 49.76646 6.40768 5732 ft 293 kts 148°
2026-05-06 19:06 49.75482 6.41824 5203 ft 293 kts 149°
2026-05-06 19:06 49.73085 6.43587 4500 ft 280 kts 171°
2026-05-06 19:06 49.71258 6.43277 4310 ft 257 kts 206°
2026-05-06 19:06 49.69955 6.41555 3897 ft 242 kts 237°
2026-05-06 19:07 49.69202 6.39340 3593 ft 226 kts 250°
2026-05-06 19:07 49.68769 6.37867 3399 ft 220 kts 246°
2026-05-06 19:07 49.68068 6.35829 3135 ft 206 kts 244°
2026-05-06 19:07 49.67404 6.34019 2846 ft 187 kts 244°
2026-05-06 19:08 49.66795 6.32373 2598 ft 168 kts 244°
2026-05-06 19:08 49.66234 6.30855 2372 ft 158 kts 245°
2026-05-06 19:08 49.65695 6.29377 2050 ft 154 kts 245°
2026-05-06 19:08 49.65180 6.27976 1855 ft 146 kts 243°
2026-05-06 19:09 49.64674 6.26671 1686 ft 142 kts 243°
2026-05-06 19:09 49.64181 6.25316 1517 ft 147 kts 244°
2026-05-06 19:09 49.63665 6.23933 1287 ft 147 kts 244°
2026-05-06 19:09 49.63184 6.22589 1212 ft 129 kts 240°
2026-05-06 19:10 49.62824 6.21622 1220 ft 79 kts 241°
2026-05-06 19:10 49.62687 6.21269 1232 ft 1 kts 242°
2026-05-06 19:10 49.62662 6.21168 1233 ft 15 kts 256°
2026-05-06 19:10 49.62645 6.20996 1251 ft 17 kts 267°
2026-05-06 19:11 49.62649 6.20819 1251 ft 6 kts 286°
2026-05-06 19:11 49.62650 6.20817 1251 ft 0 kts 286°
2026-05-06 19:12 49.62659 6.20779 1244 ft 9 kts 298°
2026-05-06 19:12 49.62742 6.20736 1239 ft 18 kts 10°
2026-05-06 19:12 49.62844 6.20887 1243 ft 25 kts 64°
2026-05-06 19:13 49.62928 6.21157 1233 ft 29 kts 65°
2026-05-06 19:13 49.63008 6.21418 1228 ft 27 kts 65°
2026-05-06 19:13 49.63093 6.21699 1225 ft 30 kts 64°
2026-05-06 19:13 49.63137 6.21842 1226 ft 14 kts 65°
2026-05-06 19:14 49.63180 6.21981 1228 ft 15 kts 64°
2026-05-06 19:14 49.63224 6.22111 1228 ft 10 kts 47°
2026-05-06 19:14 49.63274 6.22104 1228 ft 8 kts 300°
2026-05-06 19:14 49.63317 6.22038 1230 ft 9 kts 318°
2026-05-06 19:15 49.63355 6.21943 1230 ft 11 kts 264°
2026-05-06 19:15 49.63362 6.21896 1230 ft 8 kts 308°
2026-05-06 19:15 49.63416 6.21845 1230 ft 0 kts 329°
2026-05-06 19:15 49.63423 6.21838 1230 ft 0 kts 330°